When you browse on this site, cookies collect data to enhance your experience and personalize the content and advertising you see.
Visit our Privacy Policy to learn more. By continuing to use the site, you agree to this use of cookies and data.
  • En España
  • Lista de países
  • Para 7 días
  • Temperatura del agua
  • El tiempo en el mapa
  • Informadores
  • user-avatar
    Iniciar sesión

    Tiempo cada hora Motril

    Hoy, 29 Enero, Miércoles

    Tiempo Temperatura Precipitaciones Viento Presión Humedad
    00:00 +14°C° 0 mm 2 mps 764 mmHg 72%
    01:00 +14°C° 0 mm 2 mps 764 mmHg 71%
    02:00 +14°C° 0 mm 2 mps 764 mmHg 70%
    03:00 +14°C° 0 mm 2 mps 763 mmHg 69%
    04:00 +14°C° 0 mm 2 mps 763 mmHg 68%
    05:00 +14°C° 0 mm 2 mps 763 mmHg 67%
    06:00 +14°C° 0 mm 2 mps 763 mmHg 67%
    07:00 +15°C° 0 mm 2 mps 764 mmHg 65%
    08:00 +16°C° 0 mm 2 mps 764 mmHg 63%
    09:00 +17°C° 0 mm 2 mps 764 mmHg 61%
    10:00 +18°C° 0 mm 2 mps 764 mmHg 60%
    11:00 +19°C° 0 mm 2 mps 764 mmHg 58%
    12:00 +19°C° 0 mm 2 mps 764 mmHg 56%
    13:00 +19°C° 0 mm 2 mps 763 mmHg 56%
    14:00 +20°C° 0 mm 3 mps 763 mmHg 56%
    15:00 +20°C° 0 mm 3 mps 762 mmHg 55%
    16:00 +18°C° 0 mm 3 mps 763 mmHg 57%
    17:00 +17°C° 0 mm 3 mps 763 mmHg 59%
    18:00 +16°C° 0 mm 3 mps 763 mmHg 61%
    19:00 +16°C° 0 mm 3 mps 763 mmHg 58%
    20:00 +16°C° 0 mm 2 mps 764 mmHg 55%
    21:00 +16°C° 0 mm 2 mps 764 mmHg 52%
    22:00 +16°C° 0 mm 2 mps 764 mmHg 50%
    23:00 +15°C° 0 mm 2 mps 764 mmHg 47%

    Mañana, 30 Enero, Jueves

    Tiempo Temperatura Precipitaciones Viento Presión Humedad
    00:00 +15°C° 0 mm 2 mps 764 mmHg 45%
    01:00 +15°C° 0 mm 2 mps 764 mmHg 44%
    02:00 +15°C° 0 mm 2 mps 764 mmHg 43%
    03:00 +15°C° 0 mm 2 mps 763 mmHg 42%
    04:00 +15°C° 0 mm 2 mps 763 mmHg 42%
    05:00 +15°C° 0 mm 2 mps 763 mmHg 43%
    06:00 +14°C° 0 mm 3 mps 763 mmHg 43%
    07:00 +16°C° 0 mm 3 mps 764 mmHg 44%
    08:00 +17°C° 0 mm 3 mps 764 mmHg 44%
    09:00 +18°C° 0 mm 3 mps 764 mmHg 44%
    10:00 +19°C° 0 mm 3 mps 764 mmHg 42%
    11:00 +20°C° 0 mm 4 mps 764 mmHg 40%
    12:00 +21°C° 0 mm 4 mps 764 mmHg 38%
    13:00 +21°C° 0 mm 4 mps 764 mmHg 38%
    14:00 +21°C° 0 mm 4 mps 763 mmHg 38%
    15:00 +21°C° 0 mm 5 mps 763 mmHg 38%
    16:00 +20°C° 0 mm 5 mps 763 mmHg 39%
    17:00 +17°C° 0 mm 5 mps 763 mmHg 41%
    18:00 +16°C° 0 mm 6 mps 763 mmHg 42%
    19:00 +16°C° 0 mm 5 mps 763 mmHg 43%
    20:00 +15°C° 0 mm 5 mps 764 mmHg 44%
    21:00 +15°C° 0 mm 5 mps 764 mmHg 45%
    22:00 +15°C° 0 mm 4 mps 764 mmHg 46%
    23:00 +15°C° 0 mm 4 mps 764 mmHg 47%

    Pasado mañana, 31 Enero, Viernes

    Tiempo Temperatura Precipitaciones Viento Presión Humedad
    00:00 +14°C° 0 mm 4 mps 764 mmHg 48%
    01:00 +14°C° 0 mm 3 mps 764 mmHg 50%
    02:00 +14°C° 0 mm 3 mps 764 mmHg 53%
    03:00 +14°C° 0 mm 3 mps 764 mmHg 56%
    04:00 +14°C° 0 mm 3 mps 764 mmHg 59%
    05:00 +14°C° 0 mm 3 mps 763 mmHg 61%
    06:00 +14°C° 0 mm 3 mps 763 mmHg 64%
    07:00 +16°C° 0 mm 3 mps 764 mmHg 63%
    08:00 +17°C° 0 mm 3 mps 764 mmHg 62%
    09:00 +18°C° 0 mm 2 mps 764 mmHg 61%
    10:00 +19°C° 0 mm 2 mps 764 mmHg 59%
    11:00 +20°C° 0 mm 2 mps 764 mmHg 56%
    12:00 +21°C° 0 mm 2 mps 764 mmHg 53%
    13:00 +21°C° 0 mm 2 mps 763 mmHg 55%
    14:00 +20°C° 0 mm 2 mps 763 mmHg 56%
    15:00 +20°C° 0 mm 2 mps 762 mmHg 58%
    16:00 +19°C° 0 mm 2 mps 762 mmHg 63%
    17:00 +19°C° 0 mm 1 mps 762 mmHg 68%
    18:00 +18°C° 0 mm 1 mps 763 mmHg 73%
    19:00 +18°C° 0 mm 1 mps 763 mmHg 74%
    20:00 +18°C° 0 mm 1 mps 763 mmHg 74%
    21:00 +18°C° 0 mm 1 mps 764 mmHg 74%
    22:00 +18°C° 0 mm 1 mps 764 mmHg 75%
    23:00 +16°C° 0 mm 1 mps 763 mmHg 75%

    1 Febrero, Sábado

    Tiempo Temperatura Precipitaciones Viento Presión Humedad
    00:00 +16°C° 0 mm 1 mps 763 mmHg 76%
    01:00 +16°C° 0 mm 1 mps 763 mmHg 75%
    02:00 +16°C° 0 mm 1 mps 763 mmHg 75%
    03:00 +16°C° 0 mm 1 mps 763 mmHg 75%
    04:00 +16°C° 0 mm 1 mps 763 mmHg 76%
    05:00 +16°C° 0 mm 1 mps 763 mmHg 76%
    06:00 +16°C° 0 mm 1 mps 763 mmHg 76%
    07:00 +18°C° 0 mm 1 mps 763 mmHg 73%
    08:00 +19°C° 0 mm 1 mps 764 mmHg 69%
    09:00 +20°C° 0 mm 1 mps 764 mmHg 65%
    10:00 +20°C° 0 mm 2 mps 764 mmHg 62%
    11:00 +21°C° 0 mm 2 mps 764 mmHg 59%
    12:00 +23°C° 0 mm 2 mps 764 mmHg 56%
    13:00 +23°C° 0 mm 2 mps 764 mmHg 56%
    14:00 +23°C° 0 mm 2 mps 764 mmHg 56%
    15:00 +23°C° 0 mm 2 mps 763 mmHg 57%
    16:00 +22°C° 0 mm 1 mps 763 mmHg 63%
    17:00 +20°C° 0 mm 1 mps 763 mmHg 68%
    18:00 +17°C° 0 mm 0 mps 764 mmHg 74%
    19:00 +17°C° 0 mm 0 mps 764 mmHg 72%
    20:00 +16°C° 0 mm 0 mps 764 mmHg 71%
    21:00 +16°C° 0 mm 0 mps 765 mmHg 70%
    22:00 +16°C° 0 mm 0 mps 765 mmHg 70%
    23:00 +16°C° 0 mm 0 mps 765 mmHg 70%

    2 Febrero, Domingo

    Tiempo Temperatura Precipitaciones Viento Presión Humedad
    00:00 +16°C° 0 mm 0 mps 765 mmHg 70%
    01:00 +18°C° 0 mm 1 mps 765 mmHg 70%
    02:00 +16°C° 0 mm 1 mps 765 mmHg 69%
    03:00 +16°C° 0 mm 2 mps 765 mmHg 69%
    04:00 +16°C° 0 mm 2 mps 765 mmHg 70%
    05:00 +16°C° 0 mm 2 mps 765 mmHg 71%
    06:00 +16°C° 0 mm 2 mps 765 mmHg 72%
    07:00 +17°C° 0 mm 2 mps 765 mmHg 69%
    08:00 +19°C° 0 mm 2 mps 766 mmHg 66%
    09:00 +20°C° 0 mm 2 mps 766 mmHg 63%
    10:00 +21°C° 0 mm 2 mps 766 mmHg 61%
    11:00 +21°C° 0 mm 2 mps 766 mmHg 59%
    12:00 +22°C° 0 mm 3 mps 766 mmHg 56%
    13:00 +22°C° 0 mm 3 mps 766 mmHg 57%
    14:00 +22°C° 0 mm 3 mps 766 mmHg 57%
    15:00 +24°C° 0 mm 3 mps 765 mmHg 57%
    16:00 +21°C° 0 mm 2 mps 765 mmHg 62%
    17:00 +20°C° 0 mm 2 mps 765 mmHg 68%
    18:00 +18°C° 0 mm 2 mps 766 mmHg 73%
    19:00 +18°C° 0 mm 2 mps 766 mmHg 69%
    20:00 +18°C° 0 mm 2 mps 766 mmHg 65%
    21:00 +18°C° 0 mm 3 mps 767 mmHg 60%
    22:00 +18°C° 0 mm 2 mps 766 mmHg 60%
    23:00 +18°C° 0 mm 2 mps 766 mmHg 59%

    3 Febrero, Lunes

    Tiempo Temperatura Precipitaciones Viento Presión Humedad
    00:00 +17°C° 0 mm 2 mps 766 mmHg 58%
    01:00 +17°C° 0 mm 2 mps 766 mmHg 58%
    02:00 +17°C° 0 mm 2 mps 766 mmHg 58%
    03:00 +17°C° 0 mm 2 mps 765 mmHg 58%
    04:00 +16°C° 0 mm 2 mps 765 mmHg 57%
    05:00 +16°C° 0 mm 2 mps 765 mmHg 57%
    06:00 +16°C° 0 mm 2 mps 765 mmHg 56%
    07:00 +18°C° 0 mm 3 mps 765 mmHg 54%
    08:00 +19°C° 0 mm 3 mps 765 mmHg 52%
    09:00 +20°C° 0 mm 3 mps 766 mmHg 49%
    10:00 +21°C° 0 mm 3 mps 765 mmHg 47%
    11:00 +22°C° 0 mm 3 mps 765 mmHg 46%
    12:00 +25°C° 0 mm 3 mps 765 mmHg 44%
    13:00 +25°C° 0 mm 3 mps 764 mmHg 45%
    14:00 +25°C° 0 mm 3 mps 764 mmHg 46%
    15:00 +25°C° 0 mm 3 mps 763 mmHg 47%
    16:00 +23°C° 0 mm 2 mps 763 mmHg 51%
    17:00 +20°C° 0 mm 2 mps 763 mmHg 55%
    18:00 +18°C° 0 mm 2 mps 763 mmHg 59%
    19:00 +18°C° 0 mm 2 mps 764 mmHg 56%
    20:00 +18°C° 0 mm 2 mps 764 mmHg 54%
    21:00 +18°C° 0 mm 2 mps 764 mmHg 51%
    22:00 +17°C° 0 mm 2 mps 764 mmHg 50%
    23:00 +17°C° 0 mm 2 mps 764 mmHg 49%
    Mostrar más